Regional Weather Roundup
Issued by NWS

Home | Current Version | Previous Version | Text Only | Print | Product List | Glossary On
Versions: 1 2 3 4 5 6 7 8 9 10 11 12 13 14 15 16 17 18 19 20 21 22 23 24 25 26 27 28 29 30 31 32 33 34 35 36 37 38 39 40 41 42 43 44 45 46 47 48 49 50
000
ASHW40 PHFO 230944
RWRHI

WEATHER ROUNDUP FOR HAWAII
NATIONAL WEATHER SERVICE HONOLULU HI
1100 PM HST MON MAY 22 2017

THIS IS AN AUTOMATED REPORT THAT HAS NOT BEEN QUALITY CONTROLLED.

NOTE..."FAIR" INDICATES FEW OR NO CLOUDS BELOW 12,000 FEET WITH NO
SIGNIFICANT WEATHER AND/OR OBSTRUCTIONS TO VISIBILITY.

* - THESE SITES REPORT LIMITED FIELDS

HIZ001>004-231000-
KAUAI-NIIHAU-

CITY           SKY/WX    TMP DP  RH WIND       PRES   REMARKS
LIHUE APT      PTCLDY    77  62  59 NE21      30.12S
PORT ALLEN*      N/A     75 N/A N/A E13G18      N/A
POIPU*           N/A     75 N/A N/A NE10G21     N/A
PRINCEVILLE*     N/A     73 N/A N/A SE8G14      N/A
KOKOLE POINT*  NOT AVBL
MOLOAA DAIRY*    N/A     73  63  68 E5G13       N/A
WAIMEA HTS*      N/A     73  54  49 E9G18       N/A
PUU OPAE*      NOT AVBL
PUU LUA*       NOT AVBL
MAKAHA RIDGE*    N/A     70  46  43 E3G10       N/A
$$

HIZ005>011-231000-
OAHU-

CITY           SKY/WX    TMP DP  RH WIND       PRES   REMARKS
HONOLULU       PTCLDY    77  63  61 NE16G26   30.07S
KALAELOA       CLEAR     77  64  64 NE6       30.09R
KANEOHE MCB    MOCLDY    78  68  71 NE10G22   30.07S
WHEELER FIELD  MOCLDY    73  63  68 E9        30.09S
BELLOWS*         N/A    N/A N/A N/A NE22        N/A
KAHUKU*          N/A    N/A N/A N/A NE8G17      N/A
WHEELER*         N/A    N/A N/A N/A NE5         N/A
WAIANAE HARBOR   N/A    N/A N/A N/A NE7G15      N/A
DILLINGHAM*      N/A     72  64  78 NW2         N/A
KAHUKU TRN*      N/A     73  66  78 W12G24      N/A
KAWAILOA*        N/A     70  64  83 E13G25      N/A
KII*             N/A     75  66  73 NE20G26     N/A
MAKUA RANGE*     N/A     75  64  69 W6G18       N/A
OAHU FOREST NW   N/A     68  61  77 E20G35      N/A
SCHOFIELD BRK*   N/A     70  63  78 MISG        N/A
SCHOFIELD S*   NOT AVBL
WAIANAE VLY*     N/A     72 N/A N/A S8          N/A
KUAOKALA*        N/A     72  64  78 NE16G28     N/A
HONOULIUULI*   NOT AVBL
MOKUOLOE IS*   NOT AVBL
PALEHUA*         N/A     64  61  88 NE12G24     N/A
WAIAWA PHB*    NOT AVBL
$$

HIZ012>013-231000-
MOLOKAI-

CITY           SKY/WX    TMP DP  RH WIND       PRES   REMARKS
MOLOKAI AIRPT  CLOUDY    75  68  78 NE15G24   30.10S
KALAUPAPA      NOT AVBL
MAKAPULAPAI*     N/A     75  68  78 E22G31      N/A
MOLOKAI 1*     NOT AVBL
PUU ALII*        N/A     57  57  99 N3G14       N/A
$$

HIZ016-231000-
KAHOOLAWE-

CITY           SKY/WX    TMP DP  RH WIND       PRES   REMARKS
KAHOOLAWE*     NOT AVBL
HAKIOAWA*        N/A     70  64  80 MISG      30.46F
HONOKANAIA*      N/A     77  63  61 NE6G33      N/A
KANELOA*         N/A     73  64  73 E13G30    30.09
KEALIALALO*    NOT AVBL
LUA MAKIKA*    NOT AVBL
$$

HIZ014>015-231000-
LANAI-

CITY           SKY/WX    TMP DP  RH WIND       PRES   REMARKS
LANAI CITY     FAIR      69  62  78 NE15      30.11S
LANAI 1*       NOT AVBL
$$

HIZ017>028-231000-
MAUI-

CITY           SKY/WX    TMP DP  RH WIND       PRES   REMARKS
KAHULUI        PTCLDY    74  66  76 NE8       30.08R
KAPALUA-W MAUI NOT AVBL
HANA AIRPORT   CLOUDY    75  68  78 NE8       30.12S
HANA*            N/A     75 N/A N/A NE9         N/A
HALEAKALA SUMM   N/A     43   5  21 NE17G33     N/A
MAALAEA BAY*     N/A     75 N/A N/A VRB21G31    N/A
HALEAKALA*     NOT AVBL
KAUPO GAP*     NOT AVBL
KULA 1*          N/A     46  41  81 NE3         N/A
$$

HIZ023>026-231000-
BIG ISLAND OF HAWAII COAST AND LOWER SLOPES-

CITY           SKY/WX    TMP DP  RH WIND       PRES   REMARKS
KAILUA KONA    PTCLDY    73  59  61 NE7       30.01S
HILO           MOCLDY    70  66  88 CALM      30.08F
HONOKAA*         N/A     68 N/A N/A VRB1        N/A
KAWAIHAE MWT*    N/A     77 N/A N/A NE5G12      N/A
KAWAIHAE*        N/A     79 N/A N/A NW8       30.01S
SOUTH POINT*     N/A     70 N/A N/A N17G26      N/A
UPOLU AIRPORT* NOT AVBL
KAMUELA*       NOT AVBL
HAKALAU*         N/A     43  41  93 SW3         N/A
KALOKO-HONOKO* NOT AVBL
PALI 2*          N/A     63  57  82 S18G31      N/A
KEALAKOMO*       N/A     75  64  69 VRB18G26    N/A
KAUPULEHU*       N/A     66  59  77 SE6G12      N/A
KAPAPALA*        N/A     65  55  69 VRB6G12     N/A
LOWER KAHUKU*    N/A     55  55 100 N2          N/A
PUHE CS*         N/A     75  61  60 N2          N/A
PUHO CS*         N/A     76  65  67 E2          N/A
PTA KEAMUKU*     N/A     57  52  82 CALM        N/A
WAIKOLOA*        N/A     72  54  53 E17G28      N/A
$$

HIZ027>028-231000-
BIG ISLAND OF HAWAII INTERIOR AND SUMMMITS-

CITY           SKY/WX    TMP DP  RH WIND       PRES   REMARKS
BRADSHAW FIELD MOCLDY    48  38  68 SE5       30.32S
MK VISITOR CEN   N/A     55 -11   6 N15         N/A
MAUNA KEA*       N/A     39 -17   9 NE9         N/A
MAUNA LOA*       N/A     48 -36   2 MISG        N/A
MAUNA LOA 1*   NOT AVBL
PTA KIPUKA*      N/A     55  55 100 S3          N/A
PTA RANGE 17*    N/A     54  41  62 E14G28      N/A
PTA WEST*        N/A     61  45  55 S9G20       N/A
NENE CABIN*      N/A     46  43  87 NE8G16      N/A
AHUMOA*          N/A     48  36  61 E5G10       N/A
PTA PORTABLE*  NOT AVBL
PUU MALI*        N/A     59  -8   6 E21G33      N/A
$$

HIC003-231000-
NORTHWEST ISLANDS-

CITY           SKY/WX    TMP DP  RH WIND       PRES   REMARKS
MIDWAY ISLAND  NOT AVBL
MIDWAY NOS*      N/A     70 N/A N/A MISG      30.32R
FRENCH FRIGATE NOT AVBL
$$

PHZ110>124-180-231000-
BUOY REPORTS

STATION/POSITION TIME  TEMP    WIND        PRES    WAVE   SWELL
                       AIR SEA DIR/SP/G            HT/PER HT/DIR
                 (UTC) (F)     (DEG/KT/KT) (MB)    (FT/S) (FT/D)
BUOY 51001       0920   75 77   50/ 23/ 29 1021.3
BUOY 51101       0850   75 77   50/ 23/ 29 1021.4R  10/ 8   5/330
BUOY 51100       NOT AVBL
BUOY 51002       0930   78 78   60/ 19/ 23 1015.5F
BUOY 51003       0850   78 79   40/ 16/ 19 1016.7R   7/ 8   5/ 50
BUOY 51004       0850      78   50/ 17/ 21 1016.0R   7/14   3/340
BARBERS PT BUOY  NOT AVBL
WAIMEA BAY BUOY  0902      78                N/A     8/11   3/340
KAILUA BAY BUOY  0904      79                N/A     8/ 8   3/360
LANAI BUOY       NOT AVBL
BARBERS PT 2     NOT AVBL
PAUWELA MAUI     0909      78                N/A     7/11   3/320
HILO             0812      78                N/A     6/12   2/340
KANEOHE BAY BUOY 0925      79                N/A     8/ 7   3/340
HANALEI KAUAI    0922      78                N/A     8/ 9   3/330
KAHULUI HARBOR   0918   76 79   40/  7/ 10 1018.6
HONOLULU HARBOR  0918   77 79   50/  4/  9 1019.4
KILO NALU        NOT AVBL
HILO HARBOR      0918   73 77  240/  5/  8 1018.4
MOKUOLOE         0836   77 80   70/ 15/ 18 1019.1R
NAWILIWILI       0918   76      50/ 13/ 19 1019.4
WHOTS BUOY       NOT AVBL
BUOY 51028       NOT AVBL
$$

......................KEY........................................
  SKY/WX - SKY CONDITIONS/PRESENT WEATHER
  TMP    - TEMPERATURE IN FAHRENHEIT
  DWPT   - DEWPOINT IN FAHRENHEIT
  RH     - RELATIVE HUMIDITY IN PERCENT
  WIND   - DIRECTION AND SPEED /MPH FOR ISLANDS...KTS FOR BUOYS/
  PRES   - MEAN SEA LEVEL PRESSURE IN INCHES OF HG
  VSB    - VISIBILITY IN MILES
  HX     - HEAT INDEX
  WCI    - WIND CHILL INDEX
  VRB    - VARIABLE WIND DIRECTION
  N/A    - NOT AVAILABLE




USA.gov is the U.S. government's official web portal to all federal, state and local government web resources and services.